Probability
0 0 0 0 0 0 1 2 3 3 3 3 3 3 3 3 3 3 2 1 0 0 0 1 1 1 1 1 1 0 0 0 0 0 0 0 1 2 3 3 3 2 1
0 1 1 1 1 1 1 2 3 4 4 3 3 3 3 3 4 3 3 2 1 0 0 0 0 0 0 0 0 0 0 0 0 0 0 0 1 2 3 3 2 1 0
1 1 2 3 3 4 3 2 4 5 6 6 5 4 4 4 5 4 4 4 3 1 1 1 0 0 0 0 0 0 0 0 0 0 0 0 1 2 2 2 1 0 0
0 1 3 5 7 7 6 6 8 9 9 10 9 7 6 6 6 6 6 6 5 3 2 2 1 1 0 0 1 1 1 1 1 0 0 0 1 1 1 1 0 0 0
1 1 2 4 6 8 9 11 14 16 15 14 12 10 8 7 7 6 6 6 6 4 3 3 3 2 1 1 1 1 2 2 1 1 0 0 1 1 0 0 0 0 0
4 3 3 4 6 9 11 14 19 23 23 20 15 11 8 7 7 6 6 6 5 4 3 4 4 4 4 3 2 2 2 3 2 2 2 1 1 1 1 1 0 0 0
7 7 6 7 9 12 14 17 23 26 27 23 18 13 9 7 6 6 6 5 4 4 4 5 6 6 6 5 5 4 3 4 4 4 5 4 3 3 3 2 2 1 1
8 8 8 8 10 14 18 22 26 27 26 24 21 17 13 9 7 6 6 4 4 4 6 6 6 6 6 7 7 7 7 8 8 8 10 9 8 8 8 7 7 5 4
7 9 9 7 8 12 17 21 25 26 26 24 22 19 16 12 11 9 8 7 6 6 7 7 8 8 9 10 10 11 13 15 14 13 14 15 14 13 13 13 13 11 9
7 10 10 7 6 9 14 19 23 24 24 23 22 20 17 15 14 13 12 12 12 11 9 10 11 12 14 14 15 15 16 17 17 16 16 17 18 17 16 16 16 16 15
8 11 14 11 7 6 11 18 22 21 19 21 22 21 17 15 14 13 13 16 18 16 13 13 14 15 16 17 18 17 16 15 15 16 17 18 20 20 19 18 18 18 19
10 12 17 18 14 11 13 20 23 21 18 20 23 22 18 14 12 11 13 18 21 20 18 17 17 15 15 17 19 18 16 15 16 17 19 21 23 25 24 22 21 22 23
10 12 17 21 21 19 20 24 25 22 20 20 22 24 23 19 16 14 15 19 22 21 21 22 21 18 17 17 19 19 18 17 18 19 20 21 24 27 27 26 25 26 26
10 11 15 18 21 23 24 25 24 22 21 20 21 24 26 25 22 19 19 22 23 22 23 24 24 21 18 17 17 18 18 18 18 17 18 19 20 23 24 25 26 27 27
9 10 13 16 19 21 21 20 20 20 20 21 21 22 23 24 24 23 23 24 24 24 23 24 24 22 17 14 14 16 17 18 17 16 16 17 18 18 18 19 20 22 24
8 10 12 15 17 18 17 17 17 19 21 23 22 21 22 23 24 25 27 27 26 26 26 26 26 23 16 12 11 12 16 19 19 18 18 19 18 17 16 14 12 13 16
12 13 15 16 16 15 15 14 15 18 22 24 25 25 25 26 26 27 28 28 27 28 30 31 31 25 17 11 9 9 13 19 21 21 22 21 20 18 18 16 11 10 12
17 18 18 19 19 17 14 14 14 17 21 24 26 29 30 29 27 26 25 25 25 27 28 30 30 25 17 12 8 7 12 17 20 22 23 22 21 19 20 20 17 16 16
20 20 20 21 22 20 16 15 16 17 18 20 24 27 29 28 26 23 22 22 24 24 24 24 24 22 18 13 8 8 13 17 19 22 23 21 20 18 18 19 20 19 18
21 20 18 18 20 20 18 17 17 16 16 17 19 21 23 25 24 22 21 23 23 22 21 22 23 22 20 15 8 9 16 20 21 22 22 19 17 15 14 16 19 18 17
16 15 13 13 14 16 17 16 16 15 15 16 17 17 19 20 19 19 22 25 24 22 22 22 23 24 23 19 10 8 14 20 22 23 21 18 14 10 8 12 16 16 15
9 9 9 9 10 13 15 15 14 14 14 15 16 17 17 16 15 17 22 26 26 24 23 23 23 24 25 22 13 6 6 12 19 21 20 16 10 5 3 6 9 11 11
7 7 8 9 10 13 14 13 11 12 12 13 15 16 15 14 14 18 23 26 26 24 21 21 23 24 25 24 17 8 3 5 11 15 15 10 5 2 2 2 3 5 8
8 9 9 9 11 13 13 11 8 8 9 10 12 13 13 13 15 18 23 26 27 24 21 21 23 25 26 26 21 15 9 6 7 9 9 7 5 4 4 4 4 7 10
10 10 11 11 12 13 12 9 6 6 7 8 8 10 12 13 15 18 20 22 23 23 20 21 23 24 25 23 20 16 12 9 8 8 9 9 9 9 8 8 9 12 13
10 11 11 12 13 13 11 8 5 6 6 6 7 8 11 14 16 17 17 16 17 18 17 17 20 23 22 17 13 10 9 9 9 9 10 11 12 12 11 11 13 14 14
Wind_Speed
8 7 7 6 6 6 5 5 4 4 3 3 2 3 2 2 1 1 2 1 1 1 1 1 0 1 0 1 1 1 2 1 1 1 1 2 2 2 2 1 1 2 2
8 8 8 7 7 7 6 6 6 5 4 3 2 1 1 1 1 1 2 1 1 0 1 1 1 1 0 1 1 1 1 1 1 1 1 2 3 3 2 2 2 1 2
9 9 9 9 8 8 7 6 6 6 5 4 3 3 2 2 2 2 1 1 0 1 1 1 2 2 1 0 1 1 1 1 1 1 2 1 0 1 2 1 1 1 1
9 9 10 9 9 9 8 7 6 6 5 5 3 3 2 1 1 1 1 1 0 0 0 0 1 2 1 1 1 0 1 2 1 1 0 2 2 2 0 1 1 1 1
8 9 9 8 8 8 8 8 7 6 6 5 4 3 2 2 2 1 2 1 1 0 0 0 1 1 1 2 2 1 2 1 1 1 0 1 1 3 2 1 1 1 1
6 7 8 8 7 8 8 8 7 7 6 6 5 4 3 2 1 1 1 2 1 1 1 1 0 0 1 1 1 1 0 1 2 2 1 1 1 1 1 2 3 2 1
5 6 7 8 8 8 8 8 8 7 7 7 6 5 4 4 3 3 2 2 1 1 1 0 0 0 0 0 0 0 1 0 0 1 1 1 2 2 2 2 3 3 2
4 4 5 6 7 8 8 8 8 8 7 6 6 5 5 4 3 3 2 2 1 1 0 1 1 1 1 1 1 1 1 1 1 1 2 2 2 2 2 3 3 4 3
4 4 4 5 6 7 8 8 8 7 7 6 6 5 4 3 2 2 2 2 1 1 1 1 1 1 1 1 2 1 2 1 2 2 2 3 2 2 2 3 4 4 5
4 3 3 3 4 6 6 6 7 6 6 6 5 4 4 4 3 2 2 1 2 1 2 2 2 2 2 2 2 2 1 2 2 2 2 3 3 2 3 3 3 4 5
3 3 3 3 4 5 6 6 6 6 6 5 5 4 4 4 3 3 3 3 3 3 3 2 2 2 2 2 2 3 3 3 3 3 3 3 4 3 3 3 3 3 4
4 4 3 3 4 5 5 5 5 5 5 5 4 4 4 4 4 4 3 3 3 3 3 3 3 3 3 2 3 3 3 3 3 3 4 4 3 3 4 3 4 3 3
4 4 4 4 3 3 3 4 4 4 4 5 4 4 4 4 4 4 4 3 3 3 3 3 3 4 3 3 3 3 4 4 4 4 4 4 4 4 3 4 4 4 4
3 3 3 3 3 3 2 2 2 3 3 4 4 4 4 3 3 3 4 4 3 3 3 3 3 4 3 3 3 3 3 3 3 3 4 4 4 4 4 4 4 4 5
3 3 2 2 2 2 1 1 1 2 2 3 3 3 3 3 3 3 4 3 4 4 3 4 3 3 3 2 3 4 4 3 4 4 4 4 3 4 4 5 4 4 5
2 2 2 1 1 1 1 1 1 2 2 3 3 3 3 3 3 3 3 3 3 3 3 3 3 3 2 1 1 4 4 4 4 4 4 4 4 3 4 5 6 6 6
1 1 1 0 0 0 1 1 1 2 2 3 3 3 3 3 3 2 2 2 2 3 3 3 3 2 1 1 1 3 5 4 4 4 4 5 3 3 4 5 6 6 6
1 1 0 0 0 0 1 1 1 1 1 2 2 2 2 2 2 2 2 2 2 2 2 2 2 3 1 1 2 4 5 4 4 4 5 5 4 4 4 5 5 5 5
1 1 1 1 1 1 0 0 0 1 1 2 2 2 2 2 2 2 2 2 2 2 3 3 3 3 2 1 2 5 4 4 5 4 4 4 4 3 4 5 5 5 5
2 2 2 2 2 2 1 1 1 1 2 2 2 2 2 3 3 3 3 2 2 3 3 3 3 4 3 1 2 5 5 4 5 4 4 3 4 3 4 5 5 6 5
2 2 2 2 2 2 1 1 2 2 3 2 2 2 3 3 3 3 3 3 3 3 3 3 4 4 4 2 2 4 5 5 5 5 4 2 2 4 5 7 5 6 6
1 2 2 2 2 2 1 2 2 3 2 2 2 2 2 3 2 3 3 3 3 4 4 4 4 3 3 2 2 4 6 7 6 5 4 2 1 4 6 5 5 6 6
1 1 1 2 2 2 2 2 2 3 2 2 2 2 3 2 3 3 4 3 4 4 3 3 4 3 2 2 3 5 6 7 6 4 4 3 3 5 5 5 6 6 5
1 1 2 2 2 3 2 3 2 2 1 1 2 2 3 3 3 3 3 3 3 3 3 3 3 3 3 2 1 2 3 5 5 5 4 5 6 7 5 5 5 5 4
1 1 2 3 3 3 3 3 2 2 2 2 2 3 3 2 2 2 2 4 2 2 3 3 3 3 3 1 3 3 3 4 4 5 5 4 3 4 3 3 3 3 3
2 2 3 3 3 2 2 3 3 3 3 3 3 3 2 2 2 2 2 1 2 1 2 3 5 3 2 1 2 4 4 5 5 5 4 4 4 4 4 4 3 3 3
Wind_Direction
169 170 173 169 164 161 161 168 168 156 167 163 170 157 149 149 137 116 75 50 33 69 326 347 81 290 24 300 214 203 172 181 159 186 173 162 160 149 169 192 205 186 206
171 172 177 176 174 170 171 173 175 169 178 160 173 159 133 152 125 83 82 54 42 310 198 316 283 340 236 237 245 232 263 163 177 252 235 186 159 163 144 170 184 210 209
182 177 182 183 181 178 179 177 176 172 178 168 170 160 160 178 153 143 135 92 11 342 343 318 320 310 288 100 258 243 244 258 185 285 301 295 36 115 129 131 158 209 252
188 183 183 185 185 182 177 176 175 176 177 180 179 175 171 158 132 147 106 129 138 315 329 335 331 326 355 51 249 118 265 263 239 151 254 324 352 297 187 172 145 166 226
187 186 185 185 185 181 178 172 173 175 175 179 175 186 186 181 165 154 123 230 155 200 322 8 354 333 5 35 19 25 323 299 307 309 227 182 211 248 265 274 284 255 235
178 179 179 179 183 182 182 174 171 175 176 180 181 187 194 198 180 186 163 211 183 185 160 174 336 311 14 54 28 355 16 342 339 321 316 282 265 262 257 256 257 272 282
166 169 173 177 180 182 182 175 172 176 179 182 187 187 195 193 193 213 201 243 235 190 147 200 228 311 16 278 306 250 338 325 282 283 302 316 308 301 287 275 286 287 276
152 161 169 173 179 179 179 178 175 178 179 180 185 187 195 202 197 206 233 236 271 277 112 206 215 242 262 261 259 254 228 235 259 278 302 294 298 296 283 286 286 278 271
134 146 163 175 176 177 179 180 177 174 177 180 183 187 196 209 208 204 226 245 258 236 200 227 232 230 234 255 263 280 271 263 256 255 248 265 278 272 279 273 279 286 283
121 120 142 159 163 169 170 175 174 173 176 180 188 183 192 200 204 214 213 239 255 268 249 247 248 255 249 243 254 251 247 257 259 267 287 284 275 274 267 269 271 273 278
106 105 106 130 149 157 159 164 163 165 172 179 184 191 193 201 205 215 222 227 237 238 240 247 251 256 254 250 252 268 265 256 259 261 258 266 286 285 283 278 272 270 271
104 99 98 106 126 144 153 161 164 168 174 175 180 190 198 205 216 220 225 224 229 233 232 242 251 254 252 253 252 258 261 260 261 268 276 278 274 274 283 283 279 275 272
101 98 94 94 102 121 141 157 171 173 177 180 186 188 199 201 213 225 225 224 229 239 239 239 247 252 252 251 253 257 260 262 265 269 272 280 284 280 280 277 274 267 261
113 104 100 91 98 103 120 153 170 172 178 182 187 193 207 210 213 221 223 223 227 231 236 239 243 248 250 250 254 253 254 260 264 267 269 272 274 274 276 271 271 275 274
120 108 99 92 93 111 127 147 171 188 190 189 197 205 217 218 220 223 220 219 226 232 232 241 240 240 238 242 249 254 248 254 260 261 263 269 284 301 293 292 288 280 274
134 123 113 107 103 119 152 181 192 194 205 210 210 212 223 224 223 222 221 224 230 244 245 247 242 245 262 39 322 274 265 264 265 266 266 257 245 251 247 271 287 289 276
132 132 138 133 162 238 208 220 224 217 215 218 219 218 221 227 232 234 225 230 237 238 237 240 235 237 263 78 253 266 265 263 266 265 267 272 270 263 261 241 241 257 263
79 59 34 324 261 263 234 220 207 214 226 233 240 233 226 230 233 231 230 237 245 245 245 244 237 242 241 155 254 270 253 264 266 266 266 270 275 281 287 274 265 259 252
47 33 13 11 16 1 22 201 244 222 232 241 244 244 236 228 224 229 234 231 235 245 248 242 243 249 254 230 257 269 254 253 261 266 268 272 275 302 299 273 267 266 265
49 37 33 29 27 359 339 244 255 257 259 258 257 244 236 236 236 232 237 237 235 240 249 249 253 253 260 244 261 270 264 263 263 254 250 242 271 284 279 268 266 264 271
54 43 31 22 15 354 337 268 266 270 280 280 266 255 241 240 240 237 235 237 237 235 245 250 251 251 259 227 224 256 268 274 270 269 265 261 226 249 253 260 266 271 276
60 39 23 7 349 343 335 312 306 309 299 286 273 264 256 256 242 240 243 241 244 238 235 243 252 245 241 255 234 230 251 282 278 281 288 304 231 247 247 255 272 267 261
23 7 356 344 328 325 324 321 335 336 322 304 289 288 270 262 259 247 239 239 240 253 253 250 255 255 249 211 203 220 237 260 274 289 306 298 251 252 240 235 245 246 250
305 320 320 319 328 327 322 316 322 320 297 289 293 282 271 260 258 262 251 248 248 255 264 264 265 263 256 266 257 244 238 242 257 274 262 234 236 248 259 244 235 245 257
287 293 311 316 318 320 317 319 324 309 290 282 277 272 266 263 260 257 276 271 269 285 273 276 275 271 269 310 327 296 289 288 289 286 270 263 259 257 259 256 254 257 253
284 288 296 299 309 310 310 316 313 298 284 273 278 281 281 269 261 251 242 326 277 223 240 273 293 296 339 348 292 292 300 291 275 271 264 265 264 265 266 268 264 255 253